Home   Weather   Bursa   Past weeks

Flag for Turkey Past Weather in Bursa, Turkey — Yesterday and Last 2 Weeks

Now
64 °F

Clear.


Feels Like: 64 °F
Forecast: 54 / 82 °F
Wind: 1 mph from Southwest

Location: Bursa

Current Time: Oct 1, 2016 at 10:03:49 PM

Latest Report: Oct 1, 2016 at 9:00 PM


Visibility: 13 mi

Pressure: 29.99 "Hg

Humidity: 70%

Dew Point: 54 °F

Location of BursaLocation

Past Weather in Bursa — Graph

°F

Bursa Temperature Yesterday

Maximum temperature yesterday: 82 °F (at 4:00 PM)
Minimum temperature yesterday: 49 °F (at 7:00 AM)
Average temperature yesterday: 64 °F

High & Low Weather Summary for the Past Weeks

 TemperatureHumidityPressure
High98 °F (Sep 19, 4:00 PM)99% (Sep 20, 9:00 PM)30.35 "Hg (Sep 20, 9:00 PM)
Low49 °F (Sep 24, 6:00 AM)24% (Sep 19, 4:00 PM)29.65 "Hg (Sep 19, 4:00 PM)
Average67 °F66%30.04 "Hg
* Reported Sep 16 8:00 PM — Oct 1 8:00 PM, Bursa, Weather by CustomWeather, © 2016

Note: Actual official high and low records may vary slightly from our data, if they occured in-between our weather recording intervals... More about our weather records

Advertising

Bursa Weather History for the Previous 24 Hours

Scroll right to see more
 ConditionsComfort  
Time TempWeatherWind HumidityBarometerVisibility
8:00 PM
Sat, Oct 1
69 °FClear.2 mph61%29.98 "Hg9 mi
7:00 PM73 °FClear.2 mph48%29.98 "Hg9 mi
6:00 PM79 °FSunny.7 mph38%29.98 "Hg9 mi
5:00 PM82 °FSunny.5 mph34%29.98 "Hg9 mi
4:00 PM83 °FSunny.7 mph33%29.98 "Hg9 mi
2:00 PM84 °FSunny.2 mph33%30.00 "Hg9 mi
1:00 PM80 °FSunny.5 mph36%30.01 "Hg9 mi
12:00 PM77 °FSunny.7 mph40%30.01 "Hg9 mi
11:00 AM73 °FSunny.2 mph51%30.03 "Hg7 mi
10:00 AM67 °FSunny.3 mph63%30.04 "Hg6 mi
9:00 AM64 °FSunny.2 mph66%30.05 "Hg6 mi
8:00 AM56 °FSunny.No wind84%30.05 "Hg6 mi
7:00 AM52 °FSunny.1 mph93%30.05 "Hg6 mi
6:00 AM53 °FClear.1 mph91%30.05 "Hg6 mi
5:00 AM53 °FClear.No wind91%30.06 "Hg6 mi
4:00 AM54 °FClear.No wind89%30.07 "Hg6 mi
3:00 AM55 °FClear.1 mph89%30.08 "Hg6 mi
2:00 AM56 °FClear.1 mph88%30.09 "Hg9 mi
1:00 AM58 °FClear.1 mph84%30.09 "Hg9 mi
12:00 AM61 °FClear.5 mph74%30.09 "Hg9 mi
11:00 PM
Fri, Sep 30
60 °FClear.1 mph79%30.09 "Hg9 mi
10:00 PM62 °FClear.1 mph76%30.10 "Hg9 mi
Weather by CustomWeather, © 2016

See weather overviewHow to use our weather pages